CET,Max TemperatureF,Mean TemperatureF,Min TemperatureF,Max Dew PointF,MeanDew PointF,Min DewpointF,Max Humidity, Mean Humidity, Min Humidity, Max Sea Level PressureIn, Mean Sea Level PressureIn, Min Sea Level PressureIn, Max VisibilityMiles, Mean VisibilityMiles, Min VisibilityMiles, Max Wind SpeedMPH, Mean Wind SpeedMPH, Max Gust SpeedMPH,PrecipitationIn, CloudCover, Events, WindDirDegrees
2012-12-1,42,38,35,37,36,34,100,89,77,29.89,29.83,29.74,19,6,3,20,9,,0.20,5,Rain,228
2012-12-2,44,38,32,37,34,31,100,86,70,29.98,29.86,29.74,19,7,4,18,9,26,0.16,5,Rain,295
2012-12-3,46,38,31,45,36,30,100,87,64,29.98,29.73,29.56,15,6,2,20,10,29,0.20,6,Rain-Snow,217
2012-12-4,44,40,35,39,37,36,100,84,69,29.56,29.48,29.44,19,7,5,23,11,36,0.28,6,Rain,264
2012-12-5,38,35,32,36,32,25,100,88,64,29.74,29.62,29.53,19,6,1,17,4,29,0.02,5,Fog-Rain-Snow,312
2012-12-6,41,34,27,34,30,25,93,82,59,29.98,29.90,29.74,18,7,0,21,11,34,0.01,4,Rain-Snow,233
2012-12-7,35,34,32,34,32,30,100,93,78,29.86,29.55,29.39,12,4,1,22,16,33,0.31,8,Rain-Snow,138
2012-12-8,37,30,23,36,29,23,100,85,59,30.25,30.14,29.89,11,6,1,13,6,,0.00,7,Rain,201
2012-12-9,47,41,35,43,39,35,100,85,64,30.16,29.90,29.74,11,6,2,33,16,48,0.16,6,Rain-Thunderstorm,261
2012-12-10,41,36,30,39,32,25,87,76,64,30.21,29.95,29.74,17,7,6,25,16,36,0.00,5,Rain-Thunderstorm,349
2012-12-11,39,33,27,32,28,23,100,81,54,30.36,30.30,30.21,18,7,4,9,6,,0.00,6,Rain-Snow,313
2012-12-12,41,36,31,34,31,27,100,77,56,30.25,30.11,29.98,10,6,5,16,11,,0.00,7,Rain,237
2012-12-13,34,31,28,30,24,21,87,74,52,29.98,29.79,29.65,16,7,6,9,7,,0.00,7,,138
2012-12-14,50,40,31,46,39,32,100,89,77,29.65,29.34,29.03,12,5,2,22,12,32,0.39,6,Rain,147
2012-12-15,48,46,44,45,43,41,93,83,69,29.49,29.36,29.15,19,7,6,21,17,32,0.03,6,Rain,196
2012-12-16,46,44,42,45,42,41,93,89,83,29.61,29.56,29.47,19,7,6,20,13,,0.03,7,Rain,206
2012-12-17,46,44,41,45,42,39,100,93,87,29.69,29.59,29.53,10,6,4,13,9,24,0.12,6,Rain,206
2012-12-18,45,41,37,43,41,39,100,95,87,30.09,29.89,29.71,9,5,1,9,6,,0.08,7,Rain,221
2012-12-19,44,42,39,43,41,37,100,95,87,30.19,30.15,30.09,3,2,0,13,4,,0.00,7,Fog,111
2012-12-20,38,38,37,36,35,34,94,90,78,30.09,29.85,29.68,7,4,2,21,15,30,0.16,6,Rain,109
2012-12-21,48,42,37,46,42,36,100,95,87,29.95,29.79,29.68,9,4,1,14,8,,0.01,8,Rain,186
2012-12-22,51,47,43,52,44,43,100,94,87,29.98,29.80,29.53,11,4,1,21,11,21,0.31,8,Rain,184
2012-12-23,54,49,44,52,50,46,100,91,81,29.74,29.62,29.53,12,6,2,30,23,50,0.04,7,Rain-Hail,239
2012-12-24,53,50,46,50,47,45,100,88,71,29.76,29.59,29.42,19,6,2,26,14,41,0.04,6,Rain,198
2012-12-25,51,48,44,48,45,41,100,88,75,29.53,29.43,29.33,11,6,3,29,13,45,0.12,6,Rain,222
2012-12-26,50,45,42,46,43,39,93,85,74,29.74,29.64,29.50,18,7,4,25,15,36,0.12,6,Rain,228
2012-12-27,47,43,39,46,43,38,100,87,73,30.01,29.62,29.50,11,6,4,24,15,37,0.08,5,Rain,262
2012-12-28,50,44,39,48,43,37,100,92,81,30.19,30.11,30.01,14,6,2,20,9,26,0.08,7,Rain,166
2012-12-29,53,50,48,48,46,43,94,79,62,30.01,29.80,29.62,19,6,6,26,17,38,0.01,7,Rain,192
2012-12-30,48,45,42,45,41,37,87,81,73,29.93,29.82,29.71,18,7,6,25,20,38,0.01,5,Rain,222
2012-12-31,50,48,46,46,44,43,93,83,72,29.93,29.74,29.50,14,7,4,25,22,41,0.03,7,Rain,202